SL-16 DEB, 39720

Orbit data source: Space-Track

SL-16 DEB, 39720 is space debris in LEO originally from a launch on Fri, 25 Dec 1992 UTC launched from the Tyuratam Missile And Space Complex (TTMTR). Debris objects in space refer to the collection of defunct objects orbiting the Earth. Examples of debris include non-operational satellites, rocket bodies, and fragments generated from explosions, collisions, or faulty payload assembly.

Loading next visibility...
Identifier
39720, 1992-093KL
Orbit
LEO
Country
Flag of CISCIS
Related business
Manufacturer
Unknown
Mission
Spacecraft
Bus & Motor
Unknown
Mass
Unknown
Launch date (UTC)
1992-12-25 (33 years ago)
Launch vehicle
Unknown
Launch site
Tyuratam Missile And Space Complex (TTMTR)
Object type
Payload
Rocket body
Debris
Shape & HBR
Unknown shape, 0.1 m
Radar Cross Section
Small (<0.1 m²)

Expand to show TLE details & history
Last TLE update: 5 days ago

TLE from 5 days ago
0 SL-16 DEB
1 39720U 92093KL  25299.89185270  .00003730  00000-0  83787-3 0  9990
2 39720  70.7846 128.3800 0025777 226.8653 133.0335 14.57000633608413
Epoch: 2025-10-26T21:24Z
TLE epoch observation values (Epoch: 2025-10-26T21:24:16.073Z)
Latitude
-0.00002°
Longitude
131.81149°
Altitude
717.791 km
Speed
7.49 km/s
True Right ascension
08h 33m 31s
True Declination
0° 00' 00"
Sunlit
Object was in daylight at epoch
Visualization orbit readout
Latitude
Unknown
Longitude
Unknown
Altitude
Unknown
Speed
Unknown
Apparent Right ascension
Unknown
Apparent Declination
Unknown
Sunlit
N/A
Visualization observer readout
Local Sidereal Time
08:03:29
Azimuth
Unknown
Elevation
Unknown
Doppler factor
Unknown
Orbital elements
Apogee altitude
719.028 km
Perigee altitude
682.533 km
Semi-major axis
7,078.918 km
Eccentricity
0.00258
Inclination
70.7846°
RAAN
128.38°
Arg. of periapsis
226.8653°
True anomaly
133.24894°
Mean anomaly
133.0335°
Eccentric anomaly
133.14127°
Mean motion
3.64412 °/min
Orbital period
98.79 mins
BSTAR
0.00083787
Loading maneuver chart data...
Computing Atmospheric mass density...
Loading historical data...
Loading historical data...
Loading historical data...
Loading historical data...
Loading historical data...
Loading historical data...
Loading historical data...

Documentation

Showing up to 5 results
|